Regional Weather Roundup
Issued by NWS

Home | Current Version | Previous Version | Text Only | Print | Product List | Glossary Off
Versions: 1 2 3 4 5 6 7 8 9 10 11 12 13 14 15 16 17 18 19 20 21 22 23 24 25 26 27 28 29 30 31 32 33 34 35 36 37 38 39 40 41 42 43 44 45 46 47 48 49 50

000
ASUS45 KBOU 110707
RWRCO

WEATHER ROUNDUP FOR COLORADO
NATIONAL WEATHER SERVICE DENVER/BOULDER CO
1200 AM MST THU FEB 11 2016

NOTE: "FAIR" INDICATES FEW OR NO CLOUDS BELOW 12000 FEET WITH NO
SIGNIFICANT WEATHER AND/OR OBSTRUCTIONS TO VISIBILITY.

COZ001>005-013-030-031-110800-
...NORTHWEST COLORADO...

CITY           SKY/WX    TMP DP  RH WIND       PRES   REMARKS
CRAIG          CLOUDY     1  -3  83 SE3       30.39S
HAYDEN         CLOUDY    19  10  68 E8        30.37S WCI   9
MEEKER         CLOUDY    16   9  74 NE5       30.38S WCI   9
MOUNT WERNER   NOT AVBL
STEAMBOAT SPGS CLOUDY    16  13  89 CALM      30.38F
WALDEN         CLOUDY    19   9  63 E5        30.36S WCI  13
$$

COZ006>008-011-110800-
...WEST CENTRAL VALLEYS...

CITY           SKY/WX    TMP DP  RH WIND       PRES   REMARKS
GRAND JUNCTION CLOUDY    26  23  88 E9        30.40F WCI  17
MONTROSE       CLOUDY    23  18  81 SE9       30.44S WCI  13
EAGLE          CLOUDY    19  18  93 E7        30.44R WCI  10
RIFLE          CLOUDY    19  12  74 CALM      30.42S
DELTA          CLOUDY    31  24  77 CALM      30.43S
NUCLA          CLOUDY    30  19  64 SE7       30.43S WCI  23
$$

COZ017>023-064>068-110800-
...SOUTHWEST COLORADO...

CITY           SKY/WX    TMP DP  RH WIND       PRES   REMARKS
DURANGO        CLOUDY    22  16  78 NE3       30.36S
CORTEZ         CLOUDY    21  17  84 E6        30.37S WCI  13
PAGOSA SPRINGS CLOUDY    23  16  75 CALM      30.38S
TELLURIDE      CLOUDY    28   6  37 SE7       30.45S WCI  21
WOLF CREEK PAS CLOUDY    27 -11  18 N7        30.51S WCI  19
$$

COZ009-010-012-014-032>034-037-058>063-110800-
...CENTRAL COLORADO...

CITY           SKY/WX    TMP DP  RH WIND       PRES   REMARKS
ASPEN          CLOUDY    19   9  65 S6        30.40S WCI  11
BUENA VISTA    CLOUDY    34   9  36 NW10      30.35S WCI  26
COPPER MTN     CLOUDY    27   0  31 W13       30.45F WCI  16
BERTHOUD PASS  FAIR      18   7  62 NW36      30.38F WCI  -3
COTTONWOOD PAS CLOUDY    36  -2  20 NW10G21   30.38F
GUNNISON       CLOUDY    -9 N/A N/A E3        30.50S
KREMMLING      CLOUDY    -4  -9  77 CALM      30.45R
LEADVILLE      CLOUDY    17   0  47 NE9       30.40F WCI   6
MONARCH PASS   CLOUDY    23   1  39 MISG      30.54F
SALIDA         NOT AVBL
SUNLIGHT       CLOUDY    30  10  43 CALM        N/A
WILKERSON PASS CLOUDY    28   0  29 NW8G18    30.43F WCI  20
$$

COZ069>075-110800-
...SAN LUIS VALLEY/SANGRE DE CRISTO MOUNTAINS...

CITY           SKY/WX    TMP DP  RH WIND       PRES   REMARKS
ALAMOSA        CLOUDY    24  20  84 W3        30.36S
LA VETA PASS   CLOUDY    32   9  37 MISG      30.41R
SAGUACHE       CLOUDY    28  14  54 NW12      30.38F WCI  18
$$

COZ035-036-038>040-110800-
...NORTHERN COLORADO FRONT RANGE...

CITY           SKY/WX    TMP DP  RH WIND       PRES   REMARKS
DENVER INTL AP CLOUDY    34  18  52 S6        30.18F WCI  29
DMNS CITY PARK   N/A     42  12  29 SW1G9     30.18F
AURORA         PTCLDY    46  10  23 SW2       30.20F
FRONT RANGE AP   N/A     32  21  64 S8        30.20S WCI  25
ERIE MUNI ARPT CLOUDY    36  18  48 SW5       30.18F
BOULDER MUN AP CLOUDY    52  10  19 W13       30.18S
CENTENNIAL     CLOUDY    37  14  38 E3        30.20F
BROOMFIELD     CLOUDY    46  10  23 NW15      30.18F
FORT COLLINS   CLOUDY    36  18  48 S7        30.19S
LONGMONT       CLOUDY    33  20  58 CALM      30.20S
$$

COZ041-046-047-076>085-087-088-110800-
...PIKES PEAK/PALMER DIVIDE AND SOUTHERN FOOTHILLS...

CITY           SKY/WX    TMP DP  RH WIND       PRES   REMARKS
COLO. SPRINGS  CLOUDY    37  16  42 N9        30.23S
A. F. ACADEMY  CLOUDY    37   9  31 NE6       30.22F
SCHRIEVER AFB  FAIR      42  12  30 N12       30.23S
ELLICOTT       CLOUDY   N/A N/A N/A NW5       30.21S
FALCON         NOT AVBL
FORT CARSON    PTCLDY    40  12  30 CALM      30.20S
LIMON          CLOUDY    29  19  66 CALM      30.21S
MONUMENT HILL  CLOUDY    30  12  47 W5        30.25F WCI  25
TRINIDAD       CLOUDY    46   9  22 NE7       30.23R
$$

COZ042>045-048>051-090-091-110800-
...NORTHEAST COLORADO...

CITY           SKY/WX    TMP DP  RH WIND       PRES   REMARKS
GREELEY ARPT   CLOUDY    32  23  69 SW5       30.20R WCI  27
AKRON          CLOUDY    37  21  52 NW10      30.17R
BURLINGTON     CLOUDY    35  24  64 NW13      30.16S WCI  26
WRAY           NOT AVBL
STERLING       CLOUDY    36  27  69 NW10      30.15S
HOLYOKE        CLOUDY    41  28  60 NW8       30.15S
FORT MORGAN    CLOUDY    38  21  51 N16       30.17F
$$

COZ086-089-092>099-110800-
...SOUTHEAST COLORADO...

CITY           SKY/WX    TMP DP  RH WIND       PRES   REMARKS
PUEBLO         CLOUDY    38  24  57 E7        30.20R
LA JUNTA       CLOUDY    41  24  51 CALM      30.20R
LAMAR          CLOUDY    35  23  61 SW7       30.16R WCI  29
SPRINGFIELD      N/A     34  21  59 NW12      30.17R WCI  25
$$



USA.gov is the U.S. government's official web portal to all federal, state and local government web resources and services.